Weather History for Scottsbluff, NE

Change the Weather History Date:

Tuesday, June 18, 2013

  Actual Average Record
Temperature  
Mean Temperature 70 °F 68 °F  
Max Temperature 86 °F 83 °F 104 °F (1936)
Min Temperature 53 °F 53 °F 38 °F (1945)
Degree Days  
Heating Degree Days 0 1  
Month to date heating degree days 21 48  
Since 1 June heating degree days 21 48  
Since 1 July heating degree days 6306 6603  
Cooling Degree Days 5 4  
Month to date cooling degree days 83 54  
Year to date cooling degree days 137 77  
Since 1 June cooling degree days 83 54  
Growing Degree Days 20 (Base 50)    
Moisture  
Dew Point 54 °F    
Average Humidity 64    
Maximum Humidity 93    
Minimum Humidity 34    
Precipitation  
Precipitation 0.28 in 0.10 in 1.37 in (1951)
Month to date precipitation 0.82 1.91  
Year to date precipitation 5.46 8.23  
Snow  
Snow 0.00 in 0.00 in 1.00 in (1951)
Month to date snowfall 0.0 0.0  
Since 1 July snowfall 43.9 42.1  
Snow Depth 0.00 in    
Sea Level Pressure  
Sea Level Pressure 29.93 in    
Wind  
Wind Speed 11 mph (East)    
Max Wind Speed 32 mph    
Max Gust Speed 37 mph    
Visibility 10 miles    
Events Rain , Thunderstorm    
T = Trace of Precipitation, MM = Missing Value Source: NWS Daily Summary

Daily Weather History Graph

Daily Weather History Graph

Search for Another Location

Airport:

Trip Planner

Search our weather history database for the weather conditions in past years. The results will help you decide how hot, cold, wet, or windy it might be!

Date:

Astronomy

Jun. 18, 2013 Rise Set
Actual Time 5:18 AM MDT 8:32 PM MDT
Civil Twilight 4:44 AM MDT 9:06 PM MDT
Nautical Twilight 4:00 AM MDT 9:51 PM MDT
Astronomical Twilight 3:06 AM MDT 10:44 PM MDT
Moon 3:16 PM MDT (6/18) 1:32 AM MDT (6/18)
Length of Visible Light 16h 22m
Length of Day
15h 13m
Waxing Gibbous, 71% of the Moon is Illuminated
Jun 18
Waxing Gibbous
Jun 23
Full
Jun 29
Last Quarter
Jul 8
New
Jul 15
First Quarter

Hourly Weather History & Observations

Time (MDT) Temp. Heat Index Dew Point Humidity Pressure Visibility Wind Dir Wind Speed Gust Speed Precip Events Conditions
12:53 AM 59.0 °F - 54.0 °F 83% 30.03 in 10.0 mi South 6.9 mph - N/A   Clear
1:53 AM 57.9 °F - 54.0 °F 87% 30.01 in 10.0 mi Calm Calm - N/A   Clear
2:53 AM 55.9 °F - 54.0 °F 93% 30.00 in 10.0 mi Calm Calm - N/A   Clear
3:53 AM 55.9 °F - 54.0 °F 93% 30.00 in 10.0 mi NNE 4.6 mph - N/A   Clear
4:53 AM 55.0 °F - 53.1 °F 93% 30.01 in 10.0 mi NE 5.8 mph - N/A   Clear
5:53 AM 54.0 °F - 52.0 °F 93% 30.03 in 10.0 mi Calm Calm - N/A   Clear
6:53 AM 59.0 °F - 54.0 °F 83% 30.01 in 10.0 mi Calm Calm - N/A   Clear
7:53 AM 62.1 °F - 54.0 °F 75% 30.01 in 10.0 mi Calm Calm - N/A   Clear
8:53 AM 66.0 °F - 53.1 °F 63% 29.99 in 10.0 mi SSE 6.9 mph - N/A   Clear
9:53 AM 70.0 °F - 53.1 °F 55% 30.00 in 10.0 mi SE 12.7 mph 16.1 mph N/A   Clear
10:53 AM 75.0 °F - 57.0 °F 53% 29.96 in 10.0 mi ESE 10.4 mph 19.6 mph N/A   Clear
11:53 AM 79.0 °F - 55.0 °F 44% 29.93 in 10.0 mi SE 13.8 mph 20.7 mph N/A   Clear
12:53 PM 82.0 °F 81.3 °F 54.0 °F 38% 29.90 in 10.0 mi SE 16.1 mph 24.2 mph N/A   Clear
1:53 PM 84.0 °F 82.6 °F 54.0 °F 35% 29.87 in 10.0 mi SE 16.1 mph 24.2 mph N/A   Clear
2:53 PM 84.9 °F 83.3 °F 54.0 °F 34% 29.85 in 10.0 mi SE 17.3 mph 23.0 mph N/A   Clear
3:53 PM 84.0 °F 83.0 °F 55.9 °F 38% 29.83 in 10.0 mi ESE 18.4 mph - N/A   Clear
4:53 PM 82.9 °F 82.1 °F 55.9 °F 39% 29.81 in 10.0 mi ESE 19.6 mph - N/A   Clear
5:53 PM 80.1 °F 80.4 °F 57.0 °F 45% 29.79 in 10.0 mi East 20.7 mph 29.9 mph N/A   Clear
6:35 PM 78.8 °F - 55.4 °F 44% 29.89 in 10.0 mi East 18.4 mph 27.6 mph N/A Thunderstorm Partly Cloudy
6:53 PM 77.0 °F - 55.9 °F 48% 29.81 in 10.0 mi East 15.0 mph - N/A Thunderstorm Thunderstorm
7:18 PM 62.6 °F - 55.4 °F 77% 30.03 in 10.0 mi North 19.6 mph 26.5 mph 0.00 in Rain , Thunderstorm Light Thunderstorms and Rain
7:53 PM 60.1 °F - 55.0 °F 83% 29.96 in 7.0 mi NNW 15.0 mph 28.8 mph 0.14 in Rain , Thunderstorm Light Thunderstorms and Rain
8:48 PM 60.8 °F - 55.4 °F 82% 30.04 in 10.0 mi NNW 17.3 mph - 0.08 in Rain , Thunderstorm Light Thunderstorms and Rain
8:53 PM 61.0 °F - 55.0 °F 81% 29.94 in 8.0 mi North 13.8 mph 24.2 mph 0.09 in Rain , Thunderstorm Thunderstorms and Rain
9:09 PM 62.6 °F - 53.6 °F 72% 29.95 in 7.0 mi NE 32.2 mph 36.8 mph 0.02 in Rain Heavy Rain
9:21 PM 62.6 °F - 53.6 °F 72% 29.99 in 8.0 mi East 20.7 mph 34.5 mph 0.05 in Rain Light Rain
9:31 PM 60.8 °F - 53.6 °F 77% 30.00 in 10.0 mi East 21.9 mph 26.5 mph 0.05 in   Scattered Clouds
9:53 PM 64.0 °F - 51.1 °F 63% 29.86 in 10.0 mi NE 23.0 mph - 0.05 in   Clear
10:53 PM 62.1 °F - 54.0 °F 75% 29.86 in 10.0 mi NE 12.7 mph 20.7 mph N/A   Clear
11:53 PM 61.0 °F - 54.0 °F 78% 29.88 in 10.0 mi East 8.1 mph - N/A   Partly Cloudy